Terminal Aerodrome Forecast
Issued by NWS Memphis, TN

Home | Current Version | Previous Version | Text Only | Print | Product List | Glossary On
Versions: 1 2 3 4 5 6 7 8 9 10 11 12 13 14 15 16 17 18 19 20 21 22 23 24 25 26 27 28 29 30 31 32 33
000
FTUS44 KMEG 041531 AAB
TAFMEM
TAF AMD
KMEM 041531Z 0416/0512 34010G15KT 2SM -RA BR OVC003
     FM041700 01015G20KT 3SM -RA BR OVC003
      TEMPO 0419/0422 1SM -RA BR
     FM042300 02022G32KT 3SM -FZRAPL BR OVC004
     FM050400 02022G32KT 1SM PLSN BR OVC004
      TEMPO 0509/0512 1/2SM SN FG OVC002=

USA.gov is the U.S. government's official web portal to all federal, state and local government web resources and services.